Wind_Speed
40 44 57 52 47 41 38 33 34 42 38 33 36 35 36 33 38 32 36 25 20 22 27 30 28 22 21 30 31 29 30 30 29 23 23 22 18 22 24 18 16 14 12 12
43 58 51 48 44 39 42 38 40 46 39 33 37 38 33 29 30 34 23 21 20 21 23 28 30 24 21 18 28 29 30 29 24 21 23 19 16 20 21 18 11 10 12 11
56 55 48 45 42 42 44 44 46 45 37 33 32 40 32 24 27 17 17 18 23 25 29 29 31 22 14 17 22 29 27 25 21 21 21 15 14 19 19 17 12 10 9 12
58 56 20 47 48 43 43 45 43 42 36 27 3 9 26 29 28 21 21 20 17 21 22 28 13 14 15 17 21 24 23 20 20 21 16 12 13 16 16 12 15 12 10 4
57 48 58 31 38 43 53 39 39 37 34 33 41 19 30 27 31 25 23 28 22 26 23 9 8 11 16 16 20 20 18 18 19 18 12 10 12 15 15 14 15 10 6 3
45 46 45 55 35 31 31 34 32 30 33 19 41 15 35 33 22 17 15 10 11 19 13 9 10 13 15 18 17 15 14 17 17 11 9 8 11 13 14 12 17 8 3 3
30 40 31 37 44 43 33 26 6 6 8 9 22 18 35 26 24 21 20 12 12 11 7 10 10 11 13 13 13 11 14 15 12 8 6 7 10 11 13 15 13 9 1 9
33 23 49 41 40 38 47 41 15 6 4 5 18 14 35 19 16 23 13 14 13 9 8 6 8 11 13 13 9 13 12 12 8 5 5 5 7 11 15 10 8 8 8 12
33 32 12 48 41 33 35 48 39 16 9 1 6 25 30 26 24 17 18 17 13 8 4 6 9 12 12 7 12 10 10 7 5 3 3 4 6 10 10 8 8 8 8 11
12 19 34 22 32 46 37 21 36 29 4 4 7 15 22 18 19 9 15 16 14 8 3 8 9 9 9 10 8 7 6 3 2 3 0 3 5 9 8 9 10 8 8 11
38 11 1 34 37 46 45 40 24 27 21 6 1 13 31 26 22 20 18 16 10 2 6 7 8 8 10 8 6 6 3 2 2 2 2 3 4 6 8 8 3 5 8 12
45 27 35 26 19 27 42 50 44 24 17 21 17 30 17 4 10 9 18 14 7 4 6 7 7 7 7 8 6 4 2 2 2 2 3 2 2 4 7 5 6 7 10 13
10 36 24 21 33 25 36 50 53 45 19 25 9 20 23 19 20 19 21 12 6 6 7 9 7 7 8 9 6 2 2 3 3 4 4 3 5 4 8 8 10 13 14 14
7 23 46 27 26 35 32 33 48 46 33 37 37 34 27 19 14 14 21 14 8 4 7 9 9 8 9 9 6 2 2 4 4 6 5 5 6 8 10 13 16 17 19 18
15 12 31 51 44 20 25 30 37 53 49 36 45 35 31 15 18 16 19 16 11 5 10 12 9 10 9 10 6 3 3 6 6 8 7 9 8 12 12 17 19 19 21 18
23 8 17 35 41 49 35 20 32 37 45 43 37 32 27 16 27 19 21 14 10 7 6 13 12 12 10 10 7 5 5 7 9 10 8 12 14 17 18 16 16 17 17 15
25 21 16 28 33 32 33 47 24 27 38 41 38 33 23 21 29 22 21 15 12 11 7 14 13 11 13 11 8 7 6 8 10 11 10 15 16 17 17 15 14 14 13 14
31 24 13 12 15 8 31 35 34 26 27 34 40 36 32 25 24 21 23 21 14 15 9 13 16 13 17 14 12 10 8 8 10 12 12 17 17 19 19 16 15 14 11 9
22 17 7 5 12 3 17 13 25 31 25 26 38 39 30 23 25 26 21 20 14 13 10 14 15 11 17 16 13 11 10 9 10 11 13 15 18 18 18 16 13 10 9 7
6 11 14 4 4 8 12 14 22 26 26 29 38 40 34 28 32 30 25 20 23 17 15 15 19 14 15 16 15 12 10 10 9 11 12 12 15 18 16 14 13 9 8 7
23 3 14 17 6 3 16 15 21 24 16 19 39 40 35 32 28 23 23 22 23 22 16 17 16 16 14 13 11 13 12 11 11 9 10 11 13 14 15 15 13 10 8 9
12 8 1 5 5 3 2 7 17 15 18 23 35 40 39 35 28 25 24 26 26 29 23 19 17 19 17 15 13 15 14 13 12 12 10 9 11 12 13 13 13 12 10 11
4 6 4 1 3 5 14 16 14 9 18 19 32 41 42 33 30 28 29 28 27 23 26 21 18 16 17 17 15 15 17 15 13 13 14 11 11 10 10 10 11 11 10 10
7 7 13 6 5 8 6 11 8 8 9 14 21 33 35 41 31 30 33 29 26 25 31 26 23 19 14 18 18 16 17 14 14 12 15 16 14 13 11 10 10 11 11 10
14 17 19 16 9 4 5 5 6 7 10 10 19 31 38 40 33 35 35 35 29 26 31 30 23 19 17 23 22 21 19 16 14 13 12 16 18 17 15 13 11 10 11 12
11 10 13 16 16 13 8 10 3 4 9 14 21 25 36 37 34 31 30 31 30 28 29 30 25 21 17 27 26 23 21 18 14 12 11 11 18 19 18 16 14 12 11 11
Wind_Direction
219 218 223 226 233 238 246 246 258 268 271 274 272 274 277 277 280 275 291 267 265 257 258 266 269 266 284 277 283 280 282 284 288 295 302 300 304 326 331 319 314 307 301 302
215 225 230 232 231 231 233 239 251 262 269 270 275 277 273 262 281 294 285 253 257 256 256 261 265 265 281 282 275 273 276 284 289 297 299 299 304 323 338 338 328 306 310 301
220 228 223 225 229 230 238 242 251 257 274 275 283 281 269 260 290 284 263 260 257 259 261 269 268 269 277 276 272 268 277 287 288 295 299 293 312 329 338 343 348 339 331 326
224 220 219 227 230 232 239 242 248 257 269 273 323 294 275 268 275 275 281 285 269 265 274 282 252 264 264 264 265 270 282 284 284 296 294 295 317 328 335 335 343 338 346 341
223 226 224 223 230 232 240 242 247 255 263 269 271 271 277 273 279 277 275 290 276 263 280 260 246 244 248 258 260 273 279 279 290 295 295 301 315 323 333 334 337 334 323 315
234 234 234 235 232 229 239 244 252 264 259 263 263 257 288 276 273 296 297 270 266 262 256 238 238 238 243 253 269 273 274 280 290 294 287 299 313 325 337 336 336 321 323 168
229 225 228 236 230 231 230 234 243 257 217 228 256 254 255 277 290 274 295 275 259 238 234 228 233 247 255 264 270 264 276 287 295 277 278 295 323 336 341 333 338 344 111 161
208 221 222 217 222 218 223 219 196 203 187 211 238 243 258 266 284 292 247 262 240 227 213 237 247 257 252 269 251 283 282 291 280 258 282 306 340 353 348 356 359 23 119 140
208 227 211 223 216 210 218 212 217 243 262 300 218 248 263 266 273 267 258 255 232 200 230 258 242 245 257 238 286 275 282 276 261 255 264 349 354 4 31 27 36 63 116 134
232 225 230 222 220 220 217 223 213 226 220 237 249 244 237 258 253 276 236 234 221 213 281 243 223 229 219 267 260 263 262 249 240 229 292 11 27 32 44 50 54 65 128 134
215 218 228 209 211 209 210 217 203 208 219 182 156 258 252 263 268 277 253 218 223 282 234 220 205 212 242 239 230 244 235 213 186 204 89 32 51 60 37 24 44 69 133 146
217 236 249 228 228 231 220 215 213 213 205 231 234 260 252 242 245 274 225 204 198 247 225 212 204 242 220 207 206 219 205 174 176 116 85 54 43 11 7 28 86 102 126 143
210 218 233 248 242 231 218 217 219 221 224 239 206 255 254 260 273 273 206 218 180 207 229 218 220 234 205 194 197 174 158 156 160 109 109 100 61 36 59 93 103 115 117 128
306 223 219 222 214 217 221 219 215 220 219 230 239 250 256 261 249 197 196 211 193 211 227 211 212 213 194 188 196 165 123 153 152 109 129 112 87 89 91 106 102 105 117 117
7 254 224 230 231 231 238 224 214 215 222 217 234 243 247 237 214 201 212 200 209 229 237 206 207 211 185 186 189 158 144 159 146 125 142 110 111 109 114 113 109 107 106 110
4 338 243 235 232 236 242 214 225 224 222 229 236 240 232 233 201 211 203 207 212 196 235 210 207 196 175 178 178 157 155 155 145 136 138 117 124 119 121 122 122 110 102 102
317 325 323 246 231 236 241 240 221 223 228 227 222 228 228 217 197 222 221 223 219 200 214 218 215 191 170 168 163 151 146 145 143 139 132 123 136 125 123 125 126 128 110 108
307 306 291 287 221 194 247 246 235 232 234 231 230 230 234 233 224 223 227 235 216 217 211 211 215 193 172 167 164 155 145 138 140 139 136 138 142 130 127 132 127 120 106 106
256 271 235 255 207 206 210 224 215 230 237 237 233 233 229 233 218 205 218 240 226 208 197 206 211 190 176 172 163 160 156 145 141 143 141 150 150 144 137 132 129 126 117 104
15 209 211 11 268 193 214 206 202 206 214 226 223 217 226 223 218 223 224 240 227 210 193 190 199 188 167 171 175 169 165 160 149 147 152 154 160 161 154 147 138 131 129 123
349 355 236 255 290 331 213 206 210 181 192 202 212 216 210 225 231 221 226 222 212 210 197 184 199 200 180 173 179 178 174 169 168 156 153 165 165 159 169 168 159 154 148 134
307 336 158 201 268 269 310 120 174 205 211 203 203 206 212 216 233 224 226 214 195 197 199 190 182 188 191 188 193 190 175 183 183 169 160 167 172 163 162 172 175 175 170 152
237 25 310 88 142 76 50 68 133 157 198 205 205 208 208 214 222 224 218 207 203 202 201 194 177 188 200 195 196 192 184 186 185 187 177 174 177 166 160 165 163 171 177 165
322 311 343 19 136 308 126 45 98 140 147 198 205 207 204 210 217 209 214 216 208 207 201 196 185 186 200 201 192 180 194 187 183 186 190 185 186 174 171 169 159 160 167 169
322 309 307 329 32 84 172 28 147 119 106 162 198 207 211 206 214 212 216 216 215 216 206 198 198 198 199 199 182 183 186 180 177 183 190 188 191 182 177 172 168 165 165 169
351 341 320 300 317 341 333 288 209 141 101 149 180 198 202 200 206 201 200 208 215 213 212 203 201 202 198 195 186 183 180 171 167 171 185 186 195 193 185 182 180 179 179 178
Height
3079 3080 3065 3076 3083 3088 3093 3092 3090 3087 3094 3095 3092 3092 3089 3087 3089 3089 3087 3086 3086 3086 3088 3090 3091 3090 3090 3091 3092 3091 3090 3088 3086 3084 3080 3077 3074 3069 3063 3057 3054 3052 3050 3048
3070 3052 3067 3076 3081 3084 3084 3086 3084 3083 3087 3091 3086 3083 3084 3082 3083 3082 3081 3081 3082 3083 3083 3085 3086 3086 3086 3087 3088 3087 3085 3084 3082 3079 3076 3074 3071 3066 3061 3055 3052 3049 3047 3044
3049 3051 3065 3070 3074 3077 3078 3079 3080 3081 3083 3085 3083 3076 3077 3079 3079 3077 3077 3077 3078 3079 3080 3080 3080 3081 3082 3083 3083 3083 3081 3080 3078 3075 3073 3070 3068 3063 3058 3054 3050 3047 3045 3041
3046 3055 3058 3064 3064 3071 3070 3075 3080 3080 3082 3079 3079 3074 3071 3075 3074 3074 3075 3074 3073 3074 3075 3075 3074 3076 3078 3079 3079 3079 3078 3076 3074 3072 3070 3067 3065 3061 3056 3052 3050 3046 3043 3041
3029 3045 3051 3050 3051 3066 3065 3077 3077 3079 3078 3077 3072 3078 3063 3071 3068 3069 3069 3069 3068 3070 3070 3070 3072 3073 3075 3076 3076 3075 3073 3072 3070 3069 3066 3064 3062 3059 3054 3051 3048 3044 3042 3041
3036 3040 3043 3047 3058 3064 3070 3074 3075 3075 3075 3070 3067 3075 3052 3062 3063 3064 3064 3064 3064 3065 3067 3068 3069 3070 3072 3072 3072 3071 3070 3069 3067 3065 3063 3062 3060 3056 3052 3049 3046 3043 3041 3040
3029 3032 3038 3043 3051 3060 3065 3069 3072 3071 3068 3062 3064 3068 3055 3054 3058 3060 3061 3062 3063 3064 3065 3066 3066 3067 3068 3069 3068 3068 3067 3066 3064 3062 3061 3060 3057 3054 3051 3048 3044 3041 3040 3040
3019 3024 3023 3030 3034 3043 3047 3056 3058 3062 3060 3056 3059 3056 3047 3052 3054 3055 3059 3059 3060 3062 3062 3063 3064 3065 3066 3066 3065 3065 3064 3062 3061 3060 3060 3058 3056 3053 3050 3046 3043 3040 3040 3041
3013 3013 3017 3022 3029 3037 3037 3037 3052 3054 3052 3052 3049 3046 3046 3048 3051 3051 3053 3055 3058 3059 3060 3060 3062 3063 3063 3063 3063 3063 3061 3060 3060 3059 3058 3056 3055 3053 3050 3047 3043 3042 3042 3043
3010 3012 3013 3019 3027 3029 3031 3040 3049 3050 3052 3052 3043 3042 3041 3044 3046 3047 3050 3051 3055 3056 3057 3058 3059 3060 3061 3061 3061 3061 3059 3059 3059 3058 3057 3055 3054 3053 3052 3048 3046 3045 3045 3046
3007 3007 3007 3010 3005 3013 3026 3031 3035 3040 3041 3042 3045 3036 3037 3041 3043 3045 3047 3050 3053 3054 3056 3056 3057 3058 3058 3059 3060 3059 3058 3058 3057 3057 3056 3055 3055 3054 3053 3050 3047 3046 3047 3048
2999 3002 3000 3002 3008 3012 3017 3020 3026 3026 3030 3032 3037 3027 3035 3037 3040 3042 3045 3049 3051 3053 3054 3055 3056 3056 3056 3057 3058 3058 3057 3057 3057 3056 3056 3055 3056 3055 3053 3051 3048 3048 3048 3050
2991 2992 2994 2999 3005 3006 3004 3006 3016 3024 3029 3030 3034 3023 3030 3035 3037 3039 3044 3046 3049 3052 3053 3053 3054 3054 3054 3056 3057 3057 3056 3056 3056 3056 3056 3055 3056 3056 3054 3052 3050 3051 3051 3053
2982 2981 2982 2980 2987 2994 2996 3002 3009 3017 3022 3021 3021 3026 3030 3033 3035 3037 3042 3046 3048 3050 3051 3051 3052 3053 3053 3055 3057 3056 3055 3056 3056 3056 3057 3056 3057 3057 3056 3055 3055 3055 3056 3058
2976 2974 2979 2978 2986 2990 2994 2997 3002 3004 3010 3017 3018 3024 3028 3031 3035 3037 3040 3044 3047 3049 3049 3051 3051 3052 3052 3054 3056 3055 3055 3056 3057 3057 3058 3058 3059 3060 3060 3060 3060 3060 3061 3062
2974 2973 2972 2971 2979 2985 2989 2993 2997 3001 3009 3014 3018 3020 3025 3029 3032 3036 3039 3043 3045 3047 3048 3050 3050 3050 3051 3053 3055 3056 3056 3057 3058 3058 3059 3060 3061 3062 3063 3064 3064 3065 3065 3066
2974 2976 2975 2964 2976 2983 2986 2981 2991 2996 3001 3007 3011 3017 3021 3025 3030 3035 3038 3041 3043 3045 3046 3047 3049 3050 3051 3053 3055 3056 3057 3057 3059 3059 3060 3062 3063 3065 3066 3067 3067 3068 3069 3070
2971 2974 2976 2967 2973 2979 2968 2979 2987 2992 2996 3002 3007 3013 3018 3023 3028 3032 3035 3038 3042 3044 3045 3047 3048 3049 3050 3052 3054 3057 3058 3058 3059 3060 3062 3064 3066 3066 3068 3070 3071 3072 3073 3073
2969 2969 2970 2970 2968 2968 2971 2973 2978 2985 2994 3001 3005 3010 3015 3020 3025 3028 3032 3036 3040 3042 3045 3046 3048 3049 3050 3052 3054 3057 3058 3059 3060 3061 3063 3065 3067 3069 3070 3072 3073 3074 3075 3076
2961 2965 2969 2968 2967 2967 2968 2969 2971 2980 2987 2991 2995 3003 3008 3013 3017 3023 3029 3033 3038 3042 3044 3045 3047 3048 3050 3052 3054 3057 3059 3060 3060 3062 3064 3066 3068 3070 3072 3073 3075 3076 3077 3078
2964 2966 2967 2970 2970 2966 2965 2966 2970 2975 2983 2983 2987 2995 3001 3006 3012 3020 3024 3029 3033 3039 3042 3043 3045 3047 3049 3051 3054 3056 3059 3061 3061 3062 3064 3066 3068 3070 3072 3074 3075 3077 3078 3079
2971 2968 2968 2969 2969 2968 2962 2963 2967 2970 2972 2976 2980 2986 2993 3000 3008 3014 3018 3024 3028 3034 3038 3041 3043 3045 3047 3050 3052 3055 3058 3060 3061 3062 3064 3066 3068 3070 3072 3074 3076 3077 3079 3080
2974 2969 2966 2968 2969 2968 2967 2967 2967 2967 2968 2971 2975 2980 2987 2995 3001 3009 3014 3019 3024 3029 3034 3037 3039 3043 3046 3047 3050 3053 3056 3058 3061 3062 3063 3065 3068 3069 3071 3075 3077 3078 3079 3081
2968 2965 2965 2964 2966 2966 2967 2967 2967 2966 2966 2966 2970 2975 2982 2990 2996 3002 3010 3015 3020 3024 3029 3034 3036 3040 3043 3045 3048 3051 3054 3057 3060 3062 3063 3065 3068 3069 3071 3073 3076 3078 3080 3081
2967 2965 2962 2963 2963 2965 2967 2965 2965 2967 2965 2966 2968 2972 2977 2985 2991 2996 3003 3010 3015 3020 3025 3029 3033 3037 3040 3044 3046 3049 3052 3055 3058 3061 3063 3064 3067 3069 3071 3074 3076 3078 3080 3083
2962 2960 2961 2963 2964 2964 2967 2966 2965 2967 2966 2966 2965 2969 2974 2980 2986 2992 2998 3005 3011 3016 3020 3025 3030 3034 3038 3042 3045 3048 3051 3054 3057 3059 3062 3063 3065 3067 3070 3073 3075 3077 3080 3082